Location: Sungai Apap
(2.6167°N, 113.3833°E)
Time: 15:46:45
(UTC+00:00)

Ariane H10 - Pass Details

Date: 25 May 2024
Orbit: 499 x 35270 km, 6.6° (Epoch: 12 June)

Event Time Altitude Azimuth Distance (km) Brightness Sun altitude
Exits shadow 21:26:55 - 277° (W) 6,077 7.1 -12.2°
Reaches altitude 10° 21:30:10 10° 278° (W) 4,580 6.4 -11.5°
Maximum altitude 21:38:41 70° 1° (N) 771 3.1 -9.5°
Drops below altitude 10° 21:41:50 10° 86° (E) 1,742 6.2 -8.8°
Sets 21:43:25 0° 89° (E) 2,562 7.2 -8.4°
